TimeEDT,TemperatureF,Dew PointF,Humidity,Sea Level PressureIn,VisibilityMPH,Wind Direction,Wind SpeedMPH,Gust SpeedMPH,PrecipitationIn,Events,Conditions,WindDirDegrees,DateUTC
12:16 AM,71.6,68.0,88,29.95,5.0,Calm,Calm,-,N/A,,Clear,0,2013-08-08 04:16:00
12:36 AM,71.6,68.0,88,29.95,7.0,South,3.5,-,N/A,,Clear,170,2013-08-08 04:36:00
12:55 AM,71.6,68.0,88,29.95,10.0,Calm,Calm,-,N/A,,Clear,0,2013-08-08 04:55:00
1:16 AM,71.6,68.0,88,29.95,10.0,SSW,3.5,-,N/A,,Clear,200,2013-08-08 05:16:00
1:36 AM,71.6,68.0,88,29.95,10.0,Calm,Calm,-,N/A,,Scattered Clouds,0,2013-08-08 05:36:00
1:55 AM,71.6,68.0,88,29.95,7.0,Calm,Calm,-,N/A,,Mostly Cloudy,0,2013-08-08 05:55:00
2:16 AM,69.8,68.0,94,29.95,7.0,Calm,Calm,-,N/A,,Mostly Cloudy,0,2013-08-08 06:16:00
2:36 AM,69.8,68.0,94,29.95,7.0,Calm,Calm,-,N/A,,Mostly Cloudy,0,2013-08-08 06:36:00
2:55 AM,69.8,68.0,94,29.95,7.0,Calm,Calm,-,N/A,,Scattered Clouds,0,2013-08-08 06:55:00
3:16 AM,68.0,66.2,94,29.94,7.0,Calm,Calm,-,N/A,,Clear,0,2013-08-08 07:16:00
3:36 AM,68.0,66.2,94,29.94,7.0,Calm,Calm,-,N/A,,Clear,0,2013-08-08 07:36:00
3:55 AM,68.0,64.4,88,29.95,5.0,Calm,Calm,-,N/A,,Clear,0,2013-08-08 07:55:00
4:16 AM,68.0,64.4,88,29.95,5.0,Calm,Calm,-,N/A,,Clear,0,2013-08-08 08:16:00
4:36 AM,68.0,64.4,88,29.95,2.5,Calm,Calm,-,N/A,,Mist,0,2013-08-08 08:36:00
4:55 AM,66.2,64.4,94,29.94,1.2,Calm,Calm,-,N/A,,Scattered Clouds,0,2013-08-08 08:55:00
5:16 AM,68.0,64.4,88,29.94,0.5,Calm,Calm,-,N/A,Fog,Fog,0,2013-08-08 09:16:00
5:36 AM,66.2,64.4,94,29.94,1.8,Calm,Calm,-,N/A,,Mist,0,2013-08-08 09:36:00
5:56 AM,68.0,66.2,94,29.94,1.8,Calm,Calm,-,N/A,,Mostly Cloudy,0,2013-08-08 09:56:00
6:16 AM,68.0,66.2,94,29.95,2.5,Calm,Calm,-,N/A,,Overcast,0,2013-08-08 10:16:00
6:36 AM,68.0,66.2,94,29.94,2.0,Calm,Calm,-,N/A,,Overcast,0,2013-08-08 10:36:00
6:55 AM,69.8,68.0,94,29.94,3.0,Calm,Calm,-,N/A,,Overcast,0,2013-08-08 10:55:00
7:16 AM,68.0,66.2,94,29.94,1.5,Calm,Calm,-,N/A,,Overcast,0,2013-08-08 11:16:00
7:35 AM,69.8,68.0,94,29.95,1.2,Calm,Calm,-,N/A,,Overcast,0,2013-08-08 11:35:00
7:56 AM,69.8,68.0,94,29.95,1.5,Calm,Calm,-,N/A,,Overcast,0,2013-08-08 11:56:00
8:16 AM,71.6,69.8,94,29.95,1.5,Calm,Calm,-,N/A,,Mostly Cloudy,0,2013-08-08 12:16:00
8:35 AM,71.6,69.8,94,29.95,3.0,Calm,Calm,-,N/A,,Scattered Clouds,0,2013-08-08 12:35:00
8:56 AM,71.6,69.8,94,29.96,3.0,Calm,Calm,-,N/A,,Mostly Cloudy,0,2013-08-08 12:56:00
9:16 AM,73.4,69.8,88,29.95,5.0,Calm,Calm,-,N/A,,Overcast,0,2013-08-08 13:16:00
9:35 AM,73.4,69.8,88,29.96,5.0,Calm,Calm,-,N/A,,Haze,0,2013-08-08 13:35:00
9:56 AM,73.4,69.8,88,29.96,5.0,SSW,3.5,-,N/A,,Overcast,200,2013-08-08 13:56:00
10:16 AM,75.2,69.8,83,29.96,5.0,Calm,Calm,-,N/A,,Haze,0,2013-08-08 14:16:00
10:35 AM,77.0,69.8,78,29.97,5.0,SSE,3.5,-,N/A,,Haze,160,2013-08-08 14:35:00
10:56 AM,77.0,69.8,78,29.98,5.0,Calm,Calm,-,N/A,,Haze,0,2013-08-08 14:56:00
11:16 AM,78.8,71.6,78,29.98,5.0,SW,4.6,-,N/A,,Haze,220,2013-08-08 15:16:00
11:35 AM,78.8,71.6,78,29.98,7.0,SSW,4.6,-,N/A,,Overcast,210,2013-08-08 15:35:00
11:56 AM,77.0,69.8,78,29.98,5.0,SSW,8.1,-,N/A,,Haze,210,2013-08-08 15:56:00
12:16 PM,78.8,71.6,78,29.97,5.0,South,9.2,-,N/A,,Haze,180,2013-08-08 16:16:00
12:35 PM,78.8,69.8,74,29.96,5.0,South,8.1,-,N/A,,Haze,190,2013-08-08 16:35:00
12:56 PM,78.8,69.8,74,29.97,5.0,South,4.6,-,N/A,,Haze,190,2013-08-08 16:56:00
1:16 PM,78.8,69.8,74,29.96,5.0,South,4.6,-,N/A,,Haze,170,2013-08-08 17:16:00
1:35 PM,80.6,69.8,70,29.96,7.0,SSE,4.6,-,N/A,,Scattered Clouds,160,2013-08-08 17:35:00
1:56 PM,80.6,69.8,70,29.95,7.0,SSE,6.9,-,N/A,,Mostly Cloudy,160,2013-08-08 17:56:00
2:16 PM,80.6,69.8,70,29.95,7.0,SE,6.9,-,N/A,,Mostly Cloudy,140,2013-08-08 18:16:00
2:35 PM,78.8,69.8,74,29.94,5.0,ESE,3.5,-,N/A,Rain-Thunderstorm,Light Thunderstorms and Rain,110,2013-08-08 18:35:00
2:56 PM,73.4,68.0,83,29.96,4.0,North,12.7,25.3,0.01,Rain-Thunderstorm,Heavy Thunderstorms and Rain,350,2013-08-08 18:56:00
3:16 PM,69.8,68.0,94,29.96,0.2,North,6.9,-,0.13,Rain-Thunderstorm,Heavy Thunderstorms and Rain,10,2013-08-08 19:16:00
3:35 PM,69.8,68.0,94,29.95,4.0,Calm,Calm,-,0.41,Rain-Thunderstorm,Light Thunderstorms and Rain,0,2013-08-08 19:35:00
3:56 PM,71.6,69.8,94,29.95,10.0,SSE,5.8,-,0.75,,Overcast,150,2013-08-08 19:56:00
4:16 PM,69.8,68.0,94,29.96,10.0,South,3.5,-,0.18,Thunderstorm,Overcast,180,2013-08-08 20:16:00
4:35 PM,69.8,68.0,94,29.96,1.5,Calm,Calm,-,0.22,Rain-Thunderstorm,Heavy Thunderstorms and Rain,0,2013-08-08 20:35:00
4:56 PM,69.8,68.0,94,29.95,1.0,Calm,Calm,-,0.29,Rain,Heavy Rain,0,2013-08-08 20:56:00
5:16 PM,69.8,68.0,94,29.94,5.0,Calm,Calm,-,0.08,Rain,Light Rain,0,2013-08-08 21:16:00
5:35 PM,71.6,68.0,88,29.94,10.0,Calm,Calm,-,0.14,,Overcast,0,2013-08-08 21:35:00
5:56 PM,71.6,69.8,94,29.95,10.0,Calm,Calm,-,0.14,,Overcast,0,2013-08-08 21:56:00
6:16 PM,71.6,69.8,94,29.95,10.0,Calm,Calm,-,N/A,,Overcast,0,2013-08-08 22:16:00
6:35 PM,71.6,69.8,94,29.95,10.0,Calm,Calm,-,N/A,,Overcast,0,2013-08-08 22:35:00
6:56 PM,71.6,69.8,94,29.95,10.0,Calm,Calm,-,N/A,,Mostly Cloudy,0,2013-08-08 22:56:00
7:16 PM,71.6,69.8,94,29.95,10.0,Calm,Calm,-,N/A,,Mostly Cloudy,0,2013-08-08 23:16:00
7:36 PM,71.6,68.0,88,29.95,10.0,Calm,Calm,-,N/A,,Scattered Clouds,0,2013-08-08 23:36:00
7:56 PM,71.6,68.0,88,29.94,10.0,Calm,Calm,-,N/A,,Mostly Cloudy,0,2013-08-08 23:56:00
8:15 PM,71.6,68.0,88,29.95,10.0,Calm,Calm,-,N/A,,Mostly Cloudy,0,2013-08-09 00:15:00
8:36 PM,69.8,68.0,94,29.93,7.0,Calm,Calm,-,N/A,,Scattered Clouds,0,2013-08-09 00:36:00
8:56 PM,69.8,68.0,94,29.93,7.0,Calm,Calm,-,N/A,,Clear,0,2013-08-09 00:56:00
9:15 PM,68.0,66.2,94,29.94,7.0,Calm,Calm,-,N/A,,Clear,0,2013-08-09 01:15:00
9:36 PM,68.0,66.2,94,29.94,5.0,Calm,Calm,-,N/A,,Clear,0,2013-08-09 01:36:00
9:56 PM,68.0,66.2,94,29.95,4.0,Calm,Calm,-,N/A,,Clear,0,2013-08-09 01:56:00
10:15 PM,68.0,66.2,94,29.96,5.0,Calm,Calm,-,N/A,,Scattered Clouds,0,2013-08-09 02:15:00
10:36 PM,68.0,64.4,88,29.95,1.8,Calm,Calm,-,N/A,,Mostly Cloudy,0,2013-08-09 02:36:00
10:56 PM,68.0,66.2,94,29.96,2.5,Calm,Calm,-,N/A,,Overcast,0,2013-08-09 02:56:00
11:15 PM,69.8,68.0,94,29.96,3.0,Calm,Calm,-,N/A,,Overcast,0,2013-08-09 03:15:00
11:36 PM,69.8,68.0,94,29.97,3.0,North,4.6,-,N/A,,Overcast,360,2013-08-09 03:36:00
11:56 PM,69.8,68.0,94,29.96,2.5,Calm,Calm,-,N/A,,Overcast,0,2013-08-09 03:56:00